Location: Badger Butte
(44.9311°N, 118.3053°W)
Time: 12:13:07
(UTC+00:00)

Daily predictions for brighter satellites

Satellite Brightness Start Highest point End
(mag) Time Altitude Azimuth Time Altitude Azimuth Time Altitude Azimuth
SeaSat 1 2.9 12:00:10 10° S 12:04:44 38° WSW 12:09:20 10° NW
Nadezhda 1 Rocket 4.0 12:01:27 10° SSW 12:07:41 68° W 12:14:02 10° N
AVUM R/B 4.2 12:06:02 10° S 12:09:08 46° ESE 12:12:21 10° NE
Cosmos 1933 3.9 12:06:08 14° SW 12:09:25 41° WNW 12:13:19 10° N
Cosmos 1782 Rocket 3.6 12:05:51 10° NNW 12:10:08 58° W 12:14:22 10° S
CZ-4B R/B 2.8 12:07:15 10° N 12:10:50 55° WNW 12:14:32 10° SSW
Meteor 1-14 Rocket 4.3 12:07:56 10° N 12:13:48 88° W 12:19:43 10° S
Geosat 4.5 12:10:08 10° NNE 12:15:09 63° ESE 12:20:07 10° SSW
USA 234 3.8 12:12:37 10° NE 12:18:55 52° NNW 12:25:13 10° W
Meteor PRIRODA 4.3 12:15:27 10° NNE 12:19:11 60° E 12:22:54 10° S
COSMOS 2487 2.5 12:16:21 10° SSW 12:19:57 85° ESE 12:23:36 10° NNE
Cosmos 2181 Rocket 4.4 12:16:18 10° S 12:22:42 75° E 12:29:05 10° NNE
Cosmos 1455 4.4 12:22:27 10° W 12:23:30 11° WNW 12:24:33 10° NW
Abrixas rocket 2.2 12:24:47 10° WNW 12:28:07 70° SSW 12:31:27 10° ESE
COSMOS 2406 3.7 12:22:59 10° SW 12:28:31 46° WNW 12:34:04 10° NNE
Cosmos 1782 4.2 12:26:33 10° SSE 12:30:22 42° E 12:34:13 10° NNE
Cosmos 2369 4.4 12:25:35 10° NNW 12:31:18 63° ENE 12:36:58 10° SE
Resurs 1-4 Rocket 3.9 12:30:33 10° NNW 12:33:15 14° WNW 12:35:57 10° W
Atlas Centaur 2 3.9 12:32:13 10° SSW 12:34:25 13° SSE 12:36:49 10° SE
Cosmos 2154 Rocket 4.2 12:29:01 10° NNW 12:35:10 54° W 12:41:18 10° SSW
COSMO-SKYMED 1 4.1 12:31:56 10° SE 12:36:00 42° ENE 12:40:06 10° N
Okean O Rocket 2.9 12:32:46 10° N 12:36:25 25° WNW 12:40:03 10° WSW
CZ-4B R/B 3.7 12:31:41 10° N 12:36:36 39° WNW 12:41:27 10° SW
SL-27 R/B 4.4 12:34:57 10° W 12:37:24 17° WNW 12:39:50 10° NNW
Cosmos 1190 Rocket 4.2 12:32:50 10° SW 12:37:55 54° WNW 12:43:01 10° NNE
Cosmos 1356 4.1 12:36:59 10° N 12:40:31 63° ENE 12:44:01 10° SSE
Cosmos 1408 4.4 12:38:38 10° NW 12:40:49 15° W 12:43:01 10° WSW
Okean-O 2.8 12:39:32 10° N 12:43:55 58° WNW 12:48:16 10° SSW
Thor Agena Rocket 4.3 12:39:24 10° SSW 12:43:58 32° W 12:48:37 10° NNW
Meteor 2-10 Rocket 3.8 12:38:55 10° S 12:44:44 87° W 12:50:27 10° N
Aureole 3 Rocket 4.3 12:39:27 10° SW 12:45:32 38° WNW 12:50:01 10° N
ADEOS II 2.1 12:41:06 10° N 12:46:20 67° WNW 12:51:32 10° SSW
ADEOS Rocket 3.7 12:41:20 10° N 12:48:58 66° WNW 12:56:36 10° SSW
